Printer-friendly version

IAU Minor Planet Center

Minor Planet Center

MPEC 2005-C45 : 2005 CV38

The following Minor Planet Electronic Circular may be linked-to from your own Web pages, but must not otherwise be redistributed electronically.


Read MPEC 2005-C44 Read MPEC 2005-C46


M.P.E.C. 2005-C45                                Issued 2005 Feb. 10, 13:03 UT

     The Minor Planet Electronic Circulars contain information on unusual
         minor planets and routine data on comets.  They are published
   on behalf of Commission 20 of the International Astronomical Union by the
          Minor Planet Center, Smithsonian Astrophysical Observatory,
                          Cambridge, MA 02138, U.S.A.

                  Supported in part by the Brinson Foundation
             Prepared using the Tamkin Foundation Computer Network

                              MPC@CFA.HARVARD.EDU
          URL http://cfa-www.harvard.edu/iau/mpc.html  ISSN 1523-6714

                                   2005 CV38

Observations:
     K05C38V* C2005 02 09.35854 08 08 52.50 +11 44 09.4          19.6   EC045704
     K05C38V  C2005 02 09.38364 08 08 50.20 +11 44 54.3          19.8   EC045704
     K05C38V  C2005 02 09.39655 08 08 49.09 +11 45 17.1          19.7   EC045704
     K05C38V  C2005 02 10.06972 08 07 53.55 +12 05 45.1          19.0 R EC045I77
     K05C38V  C2005 02 10.07183 08 07 53.37 +12 05 49.2          18.9 R EC045I77
     K05C38V  C2005 02 10.07236 08 07 53.23 +12 05 50.3          19.2 R EC045I77
     K05C38V  C2005 02 10.07500 08 07 53.02 +12 05 55.2          19.0 R EC045I77
     K05C38V  C2005 02 10.14321 08 07 47.87 +12 07 36.2          18.7 R EC045734
     K05C38V  C2005 02 10.15132 08 07 47.09 +12 07 52.8          19.5 R EC045734
     K05C38V  C2005 02 10.16005 08 07 46.31 +12 08 07.9          19.4 R EC045734
     K05C38V  C2005 02 10.16897 08 07 45.49 +12 08 23.4          19.4 R EC045649
     K05C38V  C2005 02 10.17075 08 07 45.34 +12 08 26.7          19.4 R EC045649
     K05C38V  C2005 02 10.17252 08 07 45.19 +12 08 30.0          19.6 R EC045649
     K05C38V  C2005 02 10.17430 08 07 45.04 +12 08 33.5          19.9 R EC045649
     K05C38V 4C2005 02 10.25861 08 07 38.66 +12 11 11.5          19.9 V EC045F65
     K05C38V 4C2005 02 10.25983 08 07 38.52 +12 11 13.3          19.4 R EC045F65
     K05C38V 4C2005 02 10.26187 08 07 38.37 +12 11 17.5          20.3   EC045F65
     K05C38V 4C2005 02 10.26345 08 07 38.20 +12 11 20.7          19.2 R EC045F65
     K05C38V 4C2005 02 10.26551 08 07 38.02 +12 11 24.3          19.8 V EC045F65
     K05C38V 4C2005 02 10.26777 08 07 37.85 +12 11 28.5          19.1 R EC045F65
     K05C38V 4C2005 02 10.26894 08 07 37.72 +12 11 30.8          19.9 V EC045F65

Observer details:
649 Powell Observatory, Louisburg.  Observers R. Fredrick, R. Trentman.
    0.75-m Newtonian reflector + CCD.
704 Lincoln Laboratory ETS, New Mexico.  Observers M. Blythe, F. Shelly,
    M. Bezpalko, R. Huber, L. Manguso, D. Torres, R. Krack.  Measurers
    J. Stuart, R. Sayer, J. Evans, J. Kommers.  1.0-m f/2.15 reflector + CCD.
734 Farpoint Observatory.  Observers D. Tibbets, G. Hug.  Measurer K. Dobbs.
    0.36-m f/6 Schmidt-Cassegrain + CCD.
F65 Haleakala-Faulkes Telescope North.  Observer J. Bedient.  2.0-m
    Ritchey-Chretien + CCD.
I77 CEAMIG-REA Observatory, Belo Horizonte.  Observers C. Jacques, E. Pimentel.
    Measurer C. Jacques.  0.30-m f/3.0 Schmidt-Cassegrain + CCD.

Orbital elements:
2005 CV38
Epoch 2005 Jan. 30.0 TT = JDT 2453400.5                 MPC
M 323.25352              (2000.0)            P               Q
n   0.38605357     Peri.   63.41508     -0.85580299     +0.50381700
a   1.8679748      Node   146.46429     -0.51701839     -0.82552852
e   0.4251451      Incl.   12.26329     -0.01712380     -0.25430511
P   2.55           H   20.1           G   0.15
From 21 observations 2005 Feb. 9-10.

Ephemeris:
2005 CV38                a,e,i = 1.87, 0.43, 12                  q = 1.0738
Date    TT    R. A. (2000) Decl.     Delta      r     Elong.  Phase     V
2005 02 09    08 09.39   +11 33.7    0.411    1.380   160.0    14.2    19.7
2005 02 19    07 56.19   +16 55.3    0.380    1.324   147.2    23.9    19.7
2005 03 01    07 46.81   +22 48.1    0.363    1.271   134.0    34.1    19.8
2005 03 11    07 43.94   +28 40.4    0.357    1.221   122.1    43.6    20.0
2005 03 21    07 49.52   +34 11.2    0.355    1.176   112.0    51.8    20.1
2005 03 31    08 04.47   +39 10.5    0.355    1.138   103.9    58.5    20.2
2005 04 10    08 29.40   +43 30.1    0.355    1.107    97.8    63.7    20.3
2005 04 20    09 04.97   +46 57.2    0.352    1.086    93.8    67.3    20.4
2005 04 30    09 50.99   +49 11.1    0.348    1.075    91.7    69.5    20.4
2005 05 10    10 45.74   +49 41.4    0.344    1.075    91.5    69.9    20.4
2005 05 20    11 44.99   +47 58.8    0.341    1.086    93.2    68.5    20.3
2005 05 30    12 42.79   +43 50.6    0.341    1.107    96.7    65.5    20.3
2005 06 09    13 34.66   +37 28.3    0.348    1.137   101.4    61.1    20.3
2005 06 19    14 19.24   +29 30.1    0.365    1.175   106.7    55.9    20.3
2005 06 29    14 57.12   +20 50.8    0.395    1.219   111.6    50.8    20.4
2005 07 09    15 29.82   +12 22.9    0.441    1.269   115.2    46.5    20.6
2005 07 19    15 58.90   +04 45.0    0.501    1.322   117.1    43.2    20.9
2005 07 29    16 25.50   -01 43.8    0.578    1.378   117.1    41.0    21.2
2005 08 08    16 50.46   -07 01.3    0.669    1.436   115.6    39.6    21.6
2005 08 18    17 14.41   -11 13.2    0.774    1.495   113.0    38.6    22.0

Timothy B. Spahr             (C) Copyright 2005 MPC           M.P.E.C. 2005-C45

Read MPEC 2005-C44 Read MPEC 2005-C46


Our Web policy. Index to the CBAT/MPC/ICQ pages.


Valid HTML 4.01!